Lapse_Rate
0.6 0.4 0.1 -0.2 -0.6 -1.1 -1.3 -1.6 -1.9 -2.4 -2.5 -3.0 -3.2 -3.2 -3.7 -4.3 -4.4 1.5 3.4 3.6 2.3 0.3 -1.0 4.0 2.8 4.0 4.5 5.4 5.5 5.9 6.5 6.5 6.5 6.5 6.5 5.2 6.4 6.0 4.4 7.1 6.6 5.9 5.0 4.3 7.0
0.8 0.5 0.3 -0.1 -0.4 -0.9 -1.2 -1.5 -1.8 -2.2 -2.4 -2.7 -3.2 -3.3 -3.6 -4.2 -1.8 1.2 2.4 3.0 1.6 -1.2 3.2 4.4 4.8 4.5 4.4 5.0 4.7 5.1 6.5 6.5 6.4 6.4 6.5 6.6 6.4 4.6 6.6 5.5 6.9 6.9 6.9 6.6 8.0
1.0 0.6 0.3 0.0 -0.3 -0.5 -0.9 -1.3 -1.5 -1.9 -2.3 -2.6 -2.9 -3.4 -3.6 -4.4 1.9 4.7 0.0 1.4 0.2 -0.2 4.2 6.0 6.5 5.9 5.1 4.5 4.7 5.0 6.5 6.5 6.1 5.6 6.5 5.9 6.2 6.5 6.4 6.5 5.7 7.0 7.1 7.6 7.6
1.2 0.7 0.4 0.2 -0.1 -0.5 -0.9 -1.2 -1.4 -1.7 -2.0 -2.4 -2.5 -3.2 -3.6 -1.1 6.5 5.9 1.0 -0.3 -0.6 0.3 3.9 5.8 5.9 5.7 5.9 6.5 3.9 6.5 5.7 5.9 4.9 5.4 5.8 6.2 6.0 6.3 4.9 5.6 6.0 5.9 5.8 6.8 7.2
1.3 0.8 0.4 0.4 0.1 -0.6 -1.0 -1.3 -1.5 -1.9 -2.1 -2.3 -2.3 -2.5 -1.1 4.2 3.4 4.3 0.3 -1.7 -1.0 1.3 3.6 4.9 5.5 5.3 6.5 5.7 4.7 6.5 6.2 4.7 4.5 4.5 5.4 5.3 6.1 6.4 6.5 6.5 5.5 5.6 7.3 7.2 7.8
1.6 1.0 0.6 0.3 -0.1 -0.7 -1.3 -1.5 -1.7 -2.0 -2.1 -2.2 -2.0 -2.4 1.0 6.2 4.9 3.1 2.0 0.3 3.0 3.4 4.8 5.1 5.8 5.2 5.1 5.5 6.2 5.1 5.2 4.8 4.7 4.2 5.0 6.4 6.5 5.5 6.0 6.1 6.7 7.4 7.2 7.2 7.0
1.4 1.0 0.7 0.3 -0.3 -1.0 -1.5 -1.8 -2.0 -2.2 -2.1 -2.1 -1.8 0.7 4.1 2.6 6.0 5.5 5.3 4.7 4.8 4.9 5.4 5.8 5.7 5.7 5.3 6.5 5.2 4.9 6.5 6.4 5.5 4.9 6.3 5.3 6.5 6.5 5.1 6.3 6.7 7.0 6.9 6.1 6.4
1.4 0.9 0.7 0.2 -0.4 -1.3 -1.8 -2.2 -2.5 -2.5 -2.1 -2.0 -1.3 2.1 3.0 4.3 3.7 4.2 4.5 6.5 6.8 5.8 6.0 6.1 6.1 5.6 5.5 4.8 5.1 6.5 6.5 6.5 6.5 6.2 5.7 5.2 6.5 6.5 5.2 5.3 6.0 5.9 5.5 5.9 5.9
1.2 0.8 0.6 0.2 -0.5 -1.4 -2.2 -2.6 -3.0 -2.3 -1.7 -1.1 -0.3 2.2 5.1 6.4 5.5 5.8 6.1 6.8 7.0 6.9 6.5 8.3 7.0 6.0 4.7 6.5 6.5 6.5 6.5 6.5 6.5 6.1 6.5 6.5 6.5 6.3 5.2 6.5 6.4 6.3 6.8 6.3 6.9
1.0 0.7 0.6 0.0 -0.6 -1.5 -2.7 -2.1 -1.8 -2.0 1.4 3.1 5.4 6.3 4.1 6.1 7.0 6.8 6.5 7.0 6.4 6.1 6.0 6.1 4.7 6.5 6.5 6.5 6.5 6.5 6.5 6.5 6.5 6.5 6.5 6.5 6.5 6.5 6.4 6.2 6.2 6.1 6.9 6.4 6.8
1.0 0.6 0.5 -0.2 -0.7 -1.6 -3.4 -0.8 3.8 3.8 4.9 4.4 3.7 5.9 6.5 6.5 8.4 7.5 7.5 7.0 6.7 6.5 6.5 5.1 6.5 6.5 6.5 6.5 6.5 6.5 6.5 6.5 6.5 6.5 6.5 6.5 6.5 6.5 5.8 6.3 6.1 5.5 6.3 6.4 6.3
1.0 0.4 0.5 -0.6 -1.0 -1.9 -3.4 1.9 7.4 7.1 5.9 6.4 5.5 6.9 7.5 7.1 6.9 6.8 7.1 6.1 5.7 6.5 6.2 6.5 6.5 6.5 6.5 6.5 6.5 6.5 6.5 6.5 6.5 6.5 6.5 6.5 6.5 6.5 6.2 5.7 6.3 6.6 6.6 6.4 6.4
1.0 0.3 0.3 -0.9 -1.4 -2.6 0.6 4.9 6.7 5.9 5.8 6.9 5.6 6.7 7.2 7.4 6.5 6.0 5.9 5.6 6.3 6.5 6.5 6.5 6.5 6.5 6.5 6.5 6.5 6.5 6.5 6.5 6.5 6.5 6.5 6.5 6.5 6.5 6.4 6.4 6.7 6.6 6.3 6.3 6.0
1.1 0.5 0.1 -1.0 -0.2 2.5 5.1 6.7 6.5 6.3 6.5 6.5 6.6 6.9 7.3 6.9 6.2 6.5 6.4 5.7 6.4 6.5 6.5 6.5 6.4 6.5 6.5 6.5 6.5 6.5 6.5 6.5 6.5 6.5 6.5 6.5 6.5 6.5 6.5 6.5 6.4 6.5 5.9 5.5 5.7
1.1 0.7 -0.1 -0.7 -1.6 3.6 6.6 5.6 5.7 5.6 6.5 6.5 6.5 7.7 6.9 6.0 6.2 6.9 6.2 5.9 6.5 6.5 6.5 6.5 6.5 6.5 6.5 6.5 6.5 6.5 6.5 6.5 6.5 6.5 6.5 6.5 6.5 6.5 6.5 6.5 6.5 6.0 6.1 4.9 4.7
1.3 0.7 0.2 0.9 -1.3 2.9 5.6 4.1 4.5 6.5 6.5 6.5 6.5 6.4 6.5 6.0 6.3 5.9 6.8 6.9 5.8 6.5 6.5 6.5 5.3 6.5 6.5 6.5 6.5 6.5 6.5 6.5 6.5 6.5 6.5 6.5 6.5 6.5 6.5 6.5 6.5 6.8 6.3 5.6 5.0
1.5 0.9 -0.1 0.9 3.3 4.5 3.5 4.3 6.5 6.5 6.5 6.5 6.5 6.5 6.5 6.5 6.5 6.5 6.5 6.5 6.5 6.5 6.5 6.5 6.5 6.5 6.1 6.5 6.5 6.5 6.5 6.5 6.5 6.5 6.5 6.5 6.5 6.5 6.5 6.5 6.6 6.4 5.5 5.2 4.9
1.7 0.7 0.8 1.3 3.4 2.5 3.2 6.3 6.5 6.5 6.5 6.5 6.5 6.5 6.5 6.5 6.5 6.5 6.5 6.5 6.5 6.5 6.5 6.5 6.5 6.5 6.5 6.5 6.5 6.5 6.5 6.5 6.5 6.5 6.5 6.5 6.5 6.5 6.5 6.3 6.4 6.6 5.8 5.6 5.1
1.8 1.1 0.5 1.4 2.4 2.2 4.5 6.5 6.5 6.5 6.5 6.5 6.5 6.5 6.5 6.5 6.5 6.5 6.5 6.5 6.5 6.5 6.5 6.5 6.5 6.5 6.5 6.5 6.5 6.5 6.5 6.5 6.5 6.5 6.5 6.5 6.5 6.5 6.5 6.5 6.6 6.2 5.9 5.2 5.2
2.1 4.9 3.7 4.0 3.8 3.4 6.2 6.5 6.5 6.5 6.5 6.5 6.5 6.5 6.5 6.5 6.5 6.5 6.5 6.5 6.5 6.5 6.1 6.5 6.5 6.5 6.5 6.4 6.3 6.5 6.5 6.5 6.5 6.5 6.5 6.5 6.5 6.5 6.5 6.5 6.5 6.2 5.3 5.4 5.2
2.6 5.2 4.9 5.4 3.7 4.6 6.5 6.5 6.5 6.6 6.4 6.5 6.5 6.5 6.5 6.5 6.5 6.5 6.5 6.5 6.5 6.5 6.1 6.5 6.5 6.5 6.5 6.5 6.5 6.5 6.5 6.5 6.5 6.5 6.5 6.5 6.5 6.5 6.5 6.5 6.5 5.7 5.4 5.0 4.8
4.1 6.5 5.5 4.4 5.2 4.6 6.5 6.5 5.1 6.5 6.8 6.5 6.5 6.5 6.5 6.5 6.5 6.5 6.5 6.5 5.9 6.2 6.5 6.5 6.5 6.5 6.5 6.5 6.5 6.5 6.5 6.5 6.5 6.5 6.5 6.5 6.5 6.5 6.4 6.0 5.5 5.9 5.9 5.0 5.1
5.3 6.0 6.5 5.0 6.5 6.5 6.2 6.5 6.5 6.5 6.5 6.5 6.5 6.5 6.5 6.5 6.5 6.5 6.5 6.2 6.4 6.4 6.5 6.5 6.5 6.5 6.5 6.5 6.5 6.5 6.5 6.5 6.5 6.5 6.5 6.5 6.5 6.3 6.4 6.3 6.1 5.2 5.6 5.7 5.6
5.3 6.5 5.8 5.7 5.3 6.4 6.5 6.5 6.5 6.5 6.4 6.3 6.5 6.4 6.5 6.5 6.5 6.5 6.5 6.4 5.8 6.2 2.3 5.4 6.5 6.5 6.5 6.5 6.5 6.5 6.5 6.5 6.5 6.5 6.5 6.5 6.5 6.5 6.5 6.5 6.0 5.5 5.3 5.3 5.7
5.9 5.9 4.9 6.5 6.1 6.5 6.4 6.5 6.5 6.5 6.4 6.4 6.5 6.5 6.5 6.5 6.5 6.5 6.5 6.5 6.4 4.8 6.1 6.5 6.5 6.5 6.5 6.5 6.5 6.5 6.5 6.5 6.5 6.5 6.5 6.5 6.5 6.5 6.5 6.4 5.7 5.7 6.0 6.5 6.6
6.2 5.7 4.9 4.6 5.0 6.5 6.5 6.5 6.5 6.5 6.5 6.5 6.5 6.5 6.5 6.5 6.5 6.5 6.5 6.5 6.5 6.5 6.5 6.5 6.5 6.5 6.5 6.5 6.5 6.5 6.5 6.5 6.5 6.5 6.5 6.5 6.5 6.3 5.7 5.5 5.8 6.3 6.6 6.7 6.9
5.1 5.9 4.6 5.3 6.4 6.5 6.5 6.5 6.5 6.3 6.3 6.1 6.4 6.5 6.5 6.5 4.6 4.0 3.6 4.1 5.8 6.5 6.5 6.5 6.5 6.5 6.5 6.5 6.5 6.5 6.5 6.5 6.5 6.5 6.5 6.5 6.5 6.1 6.4 6.6 6.1 6.3 6.7 5.5 5.0
Wind_Speed
12 13 13 14 15 15 17 18 19 20 22 22 21 21 22 23 25 4 6 9 7 23 4 3 4 7 9 7 7 3 3 8 6 9 5 9 7 4 14 8 13 8 5 21 23
13 13 15 15 16 16 17 18 20 20 21 22 22 20 21 22 5 10 13 15 10 22 5 7 6 7 4 6 4 5 2 7 8 4 3 12 12 5 12 9 9 19 23 26 21
14 14 15 16 16 16 17 19 20 20 22 22 22 21 22 18 5 7 6 17 18 21 4 3 8 7 8 7 8 7 8 15 15 7 11 3 15 14 17 5 6 20 20 15 13
14 14 15 16 17 17 17 19 20 21 21 23 22 22 27 3 3 0 11 13 17 10 3 3 6 5 6 8 10 5 13 13 10 4 10 9 8 13 9 7 22 26 25 24 17
15 14 14 17 17 17 18 19 20 21 22 22 21 18 8 3 10 5 8 7 7 5 6 6 7 7 8 7 9 6 10 10 11 8 5 11 10 13 19 18 24 22 20 20 16
14 13 14 16 17 18 18 20 21 21 21 21 19 13 1 6 9 17 10 8 7 6 6 7 9 11 8 8 5 7 9 10 9 9 11 5 7 9 10 19 17 19 16 15 15
12 13 14 16 18 18 19 21 23 23 21 20 15 4 5 15 3 2 7 8 9 9 6 9 15 6 8 9 8 9 10 12 10 8 4 2 8 7 12 16 17 17 15 11 10
10 12 14 17 18 18 20 23 24 23 22 18 9 4 8 8 22 14 12 8 8 10 11 13 9 8 4 5 10 7 5 5 4 6 0 9 7 7 2 13 17 13 11 13 20
9 11 14 16 18 19 21 24 26 23 18 8 3 3 9 11 5 11 8 8 8 9 7 8 4 2 8 4 6 5 6 10 2 4 5 10 9 8 3 20 16 17 19 19 17
9 11 14 15 18 18 23 27 18 11 6 9 8 2 7 5 7 9 9 9 8 8 6 5 2 1 5 1 6 9 6 7 4 4 10 13 15 17 18 19 16 16 19 17 16
9 11 14 15 16 15 11 5 2 1 5 10 9 6 4 6 2 3 2 6 5 1 7 6 3 7 14 13 15 9 5 4 4 6 10 17 16 15 10 16 16 13 17 17 19
9 11 15 15 17 12 3 3 4 3 7 18 19 17 17 6 4 8 5 5 6 6 7 4 8 16 15 14 11 4 5 7 8 10 17 20 14 11 14 7 15 17 16 16 16
9 12 16 17 22 4 5 7 7 10 3 8 14 10 10 5 6 8 9 9 5 7 7 9 15 15 17 3 6 4 3 6 6 12 18 20 7 8 8 14 15 15 13 14 13
9 12 15 20 3 4 4 2 10 4 2 4 7 6 9 7 6 11 8 8 5 11 12 7 16 13 4 2 5 5 9 5 4 6 7 3 4 5 10 12 12 12 12 10 11
10 12 14 5 6 3 5 11 6 3 1 10 7 5 8 8 4 3 10 6 10 10 6 10 9 7 2 4 3 8 7 6 3 5 6 5 7 6 11 10 9 9 10 9 9
10 11 14 3 3 7 11 7 3 2 4 8 5 7 6 7 6 5 2 1 5 6 7 9 5 1 3 4 3 5 4 8 5 2 3 5 6 4 1 12 10 11 11 11 12
10 11 7 6 3 14 7 3 2 3 11 7 5 8 8 7 6 7 5 4 4 3 4 4 8 4 5 3 7 3 2 3 4 2 3 9 11 5 7 9 13 11 8 10 11
10 11 7 6 9 11 3 2 5 9 8 7 8 11 8 9 4 7 8 7 9 5 2 7 5 6 4 4 2 3 8 5 3 1 4 10 4 2 9 10 11 10 9 8 8
10 3 3 5 16 1 3 2 6 4 5 9 11 8 7 5 7 6 8 8 3 3 3 5 3 7 6 2 1 5 3 5 2 4 6 4 4 3 11 8 10 9 8 8 8
2 3 3 12 14 2 2 5 5 4 7 12 7 8 7 8 4 2 3 4 4 6 5 3 2 7 3 1 6 1 3 5 4 0 5 3 3 6 12 10 10 9 8 7 8
2 2 2 14 4 2 3 6 8 4 8 6 2 7 6 8 8 7 4 6 7 5 6 5 4 2 5 4 5 6 6 5 1 4 3 4 2 6 11 10 10 8 8 9 9
3 2 4 5 3 3 4 4 7 2 1 3 1 4 2 10 8 5 4 4 5 4 4 2 2 3 6 4 5 7 6 5 3 5 1 4 1 7 10 11 10 8 8 8 9
3 3 0 3 4 3 6 8 4 4 3 2 3 6 5 5 6 9 5 5 3 5 2 4 4 3 4 6 8 6 6 6 3 2 4 5 4 7 11 11 11 9 8 8 9
3 4 2 2 3 3 6 7 3 3 6 5 1 4 6 7 8 5 5 5 5 4 2 2 4 2 4 3 1 5 9 7 6 4 3 5 13 10 11 12 10 8 8 8 9
3 3 7 5 5 6 4 5 6 3 3 3 3 1 6 4 5 6 7 4 2 1 2 4 4 6 7 8 9 7 10 10 10 9 6 11 14 10 9 11 9 10 9 10 8
3 2 2 5 6 7 4 6 9 5 4 2 2 5 7 5 2 7 8 4 3 3 3 4 1 5 4 7 8 7 7 9 11 11 14 16 10 11 11 9 7 8 9 9 14
3 3 2 2 7 4 4 4 9 7 3 6 4 11 14 5 10 7 8 6 5 6 3 3 4 3 2 7 7 5 4 9 8 10 11 6 7 7 11 13 4 8 13 15 15
Wind_Direction
323 321 322 324 327 327 327 326 327 327 325 324 327 330 328 329 320 264 246 233 184 180 214 155 226 266 286 263 266 273 273 277 187 187 235 232 252 101 81 344 44 10 158 132 152
313 316 316 319 321 323 324 324 323 324 324 321 323 328 327 332 303 260 237 176 175 152 161 211 238 239 264 267 255 164 186 249 236 119 174 232 227 119 93 91 65 71 95 124 142
308 312 315 313 314 317 320 320 318 321 322 320 321 329 323 325 303 247 172 169 167 169 256 244 264 222 239 241 254 253 235 256 268 146 275 255 90 124 138 140 191 135 120 124 122
299 302 309 310 311 314 315 315 313 317 319 318 321 330 319 239 274 141 187 182 175 174 273 290 279 279 252 258 261 273 266 262 258 182 155 267 116 71 129 153 127 137 146 151 154
297 295 303 305 308 310 311 312 309 314 315 315 319 335 349 290 249 181 161 161 143 182 219 214 256 254 246 264 281 273 274 289 295 298 202 104 106 91 83 111 132 142 138 133 154
297 293 301 301 304 308 313 310 308 308 308 310 314 327 264 260 242 158 146 153 175 192 203 226 244 253 251 261 276 287 302 302 311 312 11 65 86 79 115 128 135 131 140 144 158
301 299 302 301 304 309 312 307 305 302 304 305 303 287 262 240 212 56 220 192 179 185 215 229 240 246 280 318 295 299 318 310 302 359 30 85 60 134 183 145 145 141 142 135 149
298 304 304 304 307 311 310 305 300 299 298 301 268 230 252 254 248 274 266 262 232 208 210 233 252 258 253 305 336 327 335 289 8 98 184 71 349 359 224 101 114 122 101 84 86
299 305 303 305 309 313 309 306 295 293 285 254 217 213 261 308 204 240 210 228 239 252 261 258 283 276 349 328 320 305 253 274 241 181 89 88 301 322 336 113 107 101 98 93 93
300 301 302 309 310 321 318 300 284 312 230 193 259 336 259 239 238 208 230 235 239 208 239 252 337 285 311 103 238 249 254 275 240 204 130 128 74 19 92 98 97 98 101 96 87
296 301 302 310 313 330 347 357 344 307 241 204 189 224 229 257 68 316 264 194 247 282 196 223 170 233 234 229 241 256 269 320 342 256 69 79 69 47 66 99 97 88 95 94 91
293 304 302 313 313 319 301 257 339 223 294 234 250 245 277 278 326 232 217 204 201 234 193 253 222 233 239 243 252 237 325 319 327 70 101 94 76 71 52 75 99 104 100 99 98
291 305 305 320 313 289 207 241 339 28 264 270 200 230 242 211 240 250 174 205 184 239 236 204 235 237 246 280 357 327 284 275 257 74 94 98 51 75 61 79 86 91 99 100 103
290 305 311 327 345 318 229 350 15 18 330 203 192 240 205 204 253 236 220 160 227 208 236 227 254 253 233 14 2 309 297 309 355 126 160 258 118 100 95 75 77 90 93 101 99
291 301 310 348 309 307 356 9 318 43 248 153 148 153 155 180 244 226 169 189 210 228 172 249 264 261 182 207 238 263 295 301 331 331 11 93 88 143 128 113 100 91 97 97 102
285 301 316 74 179 263 340 338 33 69 247 173 122 172 161 220 274 160 160 83 233 239 260 238 283 270 154 10 310 231 24 335 337 80 356 4 110 133 212 132 113 98 96 102 93
280 290 296 323 216 335 340 31 73 207 143 144 173 166 164 196 243 142 175 221 211 196 232 247 247 221 104 15 325 331 91 322 335 0 113 91 60 98 65 100 116 107 106 101 106
281 293 267 241 267 325 5 65 218 214 231 150 133 160 186 188 209 158 178 200 263 271 244 217 266 185 154 172 236 280 166 175 248 261 137 42 89 139 95 83 95 105 107 113 119
300 239 242 235 222 190 79 174 221 280 208 123 137 181 223 177 136 164 193 203 1 227 91 4 76 59 66 29 91 314 25 227 123 26 84 105 61 79 132 128 124 137 131 134 143
295 237 219 155 169 116 109 248 248 344 331 134 161 187 177 167 123 184 174 21 100 56 75 304 115 130 193 192 295 216 299 12 15 110 111 105 116 148 159 156 143 132 139 144 123
249 227 193 140 107 82 197 250 297 43 17 20 251 198 172 149 165 200 165 30 35 40 22 21 56 229 76 47 61 14 25 16 64 82 125 125 112 96 120 132 129 132 136 135 128
263 195 206 122 110 204 218 229 304 319 347 322 317 252 231 160 179 80 75 76 34 39 8 8 116 9 131 73 48 76 60 55 100 312 293 90 112 99 111 115 117 120 125 129 130
237 121 185 90 168 227 277 266 279 312 209 294 331 353 37 86 100 106 80 348 10 69 61 341 351 33 11 9 4 68 49 30 359 52 328 113 169 133 117 116 116 117 117 120 118
279 128 106 184 263 241 207 250 241 294 292 257 311 334 46 63 62 122 107 46 44 82 162 67 51 92 158 104 0 49 48 31 49 63 65 86 135 140 130 125 124 125 128 127 132
241 196 165 192 244 244 296 207 207 223 269 329 35 319 95 93 88 102 85 113 61 33 51 82 82 82 69 67 58 55 69 46 48 70 92 135 108 103 106 121 132 135 138 133 139
278 35 135 169 179 194 230 230 194 204 149 278 142 233 64 61 142 145 133 153 166 232 74 12 43 90 92 105 89 76 90 76 44 69 101 106 109 132 137 124 126 139 140 127 100
264 286 105 160 165 150 223 234 199 145 7 3 44 92 80 81 76 115 105 96 116 110 78 78 123 89 141 71 98 49 43 95 76 53 116 118 154 120 98 79 71 110 95 91 99